Regional Weather Roundup
Issued by NWS

Home | Current Version | Previous Version | Text Only | Print | Product List | Glossary Off
Versions: 1 2 3 4 5 6 7 8 9 10 11 12 13 14 15 16 17 18 19 20 21 22 23 24 25 26 27 28 29 30 31 32 33 34 35 36 37 38 39 40 41 42 43 44 45 46 47 48 49 50

000
ASUS43 KTOP 302059
RWRKS

WEATHER ROUNDUP FOR KANSAS
NATIONAL WEATHER SERVICE GOODLAND KS
400 PM CDT SAT AUG 30 2014

NOTE:  "FAIR" INDICATES FEW OR NO CLOUDS BELOW 12,000 FEET WITH NO
SIGNIFICANT WEATHER AND/OR OBSTRUCTIONS TO VISIBILITY.

KSZ001>006-013>018-027>032-041>047-302200-
NORTHWEST KANSAS

CITY           SKY/WX    TMP DP  RH WIND       PRES   REMARKS
GOODLAND       SUNNY     88  49  25 S13       29.92F
HAYS           MOSUNNY   93  55  27 S18       29.89F
HILL CITY      SUNNY     91  55  29 SW14      29.88F
RUSSELL        SUNNY     89  59  36 S15       29.89F
$$

KSZ061>065-074>080-084>089-302200-
SOUTHWEST KANSAS

CITY           SKY/WX    TMP DP  RH WIND       PRES   REMARKS
DODGE CITY     SUNNY     91  47  21 S20G26    29.93F
ELKHART          N/A     91  56  30 S15         N/A
GARDEN CITY    SUNNY     90  54  29 S15G23    29.92F
GREAT BEND     SUNNY     91  54  27 SE15      29.90F
LIBERAL        MOSUNNY   93  50  22 SW16G24   29.93F
$$

KSZ066>073-081>083-090>101-302200-
SOUTHEAST KANSAS

CITY           SKY/WX    TMP DP  RH WIND       PRES   REMARKS
CHANUTE        MOSUNNY   93  58  30 VRB6      29.88F
COFFEYVILLE    SUNNY     92  62  36 S3        29.87F
HUTCHINSON     SUNNY     91  56  30 S12       29.91F
NEWTON         SUNNY     91  55  29 E6        29.94F
PARSONS        SUNNY     92  61  35 VRB3      29.89F
WICHITA INTL   MOSUNNY   92  57  30 VRB6      29.89F
WICHITA JABRA  SUNNY     90  55  30 VRB6      29.90F
WINFIELD       SUNNY     92  61  35 W8        29.91F
$$

KSZ007>012-019>026-033>040-048>060-102>105-302200-
NORTHEAST KANSAS

CITY           SKY/WX    TMP DP  RH WIND       PRES   REMARKS
CONCORDIA      SUNNY     86  65  49 S5        29.90F
EMPORIA        SUNNY     91  58  32 E5        29.89F
LAWRENCE       SUNNY     95  66  38 NE6       29.89F HX  98
MANHATTAN      MOSUNNY   91  61  36 VRB5      29.88F
OLATHE IND     SUNNY     90  63  40 N7        29.90F
OLATHE EXE     MOSUNNY   87  63  44 N5        29.89F
SALINA         SUNNY     93  56  28 CALM      29.89F
TOPEKA BILLARD SUNNY     91  65  41 CALM      29.89F
TOPEKA FORBES  SUNNY     90  58  33 NW6       29.89F
$$


USA.gov is the U.S. government's official web portal to all federal, state and local government web resources and services.